TimeEDT,TemperatureF,Dew PointF,Humidity,Sea Level PressureIn,VisibilityMPH,Wind Direction,Wind SpeedMPH,Gust SpeedMPH,PrecipitationIn,Events,Conditions,WindDirDegrees,DateUTC
12:53 AM,41.0,28.0,60,29.73,10.0,NW,17.3,26.5,N/A,,Overcast,320,2012-10-30 04:53:00
1:53 AM,39.9,30.9,70,29.70,10.0,NW,15.0,20.7,0.00,,Overcast,310,2012-10-30 05:53:00
2:11 AM,39.2,32.0,75,29.68,10.0,NW,13.8,24.2,0.00,Rain,Light Rain,320,2012-10-30 06:11:00
3:53 AM,39.0,30.9,73,29.65,10.0,WNW,17.3,26.5,0.00,Rain,Light Rain,290,2012-10-30 07:53:00
4:53 AM,39.0,30.9,73,29.62,10.0,WNW,15.0,25.3,0.00,,Overcast,300,2012-10-30 08:53:00
5:53 AM,37.9,30.9,76,29.62,10.0,WNW,13.8,26.5,0.00,Rain,Light Rain,300,2012-10-30 09:53:00
6:32 AM,37.4,32.0,81,29.61,10.0,WNW,12.7,24.2,0.01,Rain,Light Rain,300,2012-10-30 10:32:00
6:53 AM,37.0,32.0,82,29.62,10.0,WNW,10.4,21.9,0.01,Rain,Light Rain,290,2012-10-30 10:53:00
7:53 AM,37.0,33.1,86,29.63,10.0,WNW,12.7,20.7,0.00,Rain,Light Rain,290,2012-10-30 11:53:00
8:43 AM,35.6,33.8,93,29.63,6.0,West,10.4,-,0.03,Rain,Light Rain,280,2012-10-30 12:43:00
8:53 AM,36.0,33.1,89,29.64,6.0,WNW,11.5,18.4,0.04,Rain,Light Rain,290,2012-10-30 12:53:00
9:28 AM,35.6,33.8,93,29.64,6.0,West,9.2,18.4,0.02,Rain,Light Rain,280,2012-10-30 13:28:00
9:53 AM,35.1,34.0,96,29.65,6.0,West,9.2,-,0.04,Rain,Light Rain,270,2012-10-30 13:53:00
10:53 AM,36.0,34.0,93,29.64,9.0,West,13.8,-,0.02,Rain,Light Rain,270,2012-10-30 14:53:00
11:53 AM,36.0,34.0,93,29.65,9.0,West,15.0,20.7,0.02,Rain,Light Rain,280,2012-10-30 15:53:00
12:53 PM,37.0,35.1,93,29.65,10.0,West,16.1,24.2,0.01,Rain,Light Rain,280,2012-10-30 16:53:00
1:43 PM,37.4,35.6,93,29.63,10.0,WNW,12.7,-,0.01,Rain,Light Rain,290,2012-10-30 17:43:00
1:53 PM,37.0,35.1,93,29.64,10.0,West,12.7,21.9,0.01,Rain,Light Rain,280,2012-10-30 17:53:00
2:05 PM,37.4,35.6,93,29.63,10.0,West,16.1,21.9,0.01,Rain,Light Rain,270,2012-10-30 18:05:00
2:53 PM,37.0,35.1,93,29.64,10.0,West,12.7,21.9,0.02,Rain,Light Rain,280,2012-10-30 18:53:00
3:53 PM,37.0,35.1,93,29.65,9.0,West,15.0,21.9,0.02,Rain,Light Rain,280,2012-10-30 19:53:00
4:53 PM,37.0,35.1,93,29.67,7.0,West,16.1,-,0.03,Rain,Light Rain,280,2012-10-30 20:53:00
5:32 PM,37.4,33.8,87,29.67,9.0,West,11.5,18.4,0.02,Rain,Light Rain,280,2012-10-30 21:32:00
5:53 PM,37.0,34.0,89,29.70,9.0,West,10.4,-,0.03,Rain,Light Rain,270,2012-10-30 21:53:00
6:53 PM,37.0,35.1,93,29.72,9.0,West,10.4,18.4,0.04,Rain,Light Rain,270,2012-10-30 22:53:00
7:20 PM,37.4,33.8,87,29.71,9.0,West,15.0,-,0.01,Rain,Light Rain,280,2012-10-30 23:20:00
7:35 PM,37.4,35.6,93,29.72,9.0,West,10.4,-,0.02,Rain,Light Rain,280,2012-10-30 23:35:00
7:53 PM,37.0,35.1,93,29.75,9.0,West,11.5,-,0.03,Rain,Light Rain,270,2012-10-30 23:53:00
8:21 PM,37.4,35.6,93,29.73,10.0,West,13.8,20.7,0.00,Rain,Light Rain,270,2012-10-31 00:21:00
8:29 PM,37.4,35.6,93,29.73,10.0,West,12.7,20.7,0.00,Rain,Light Rain,260,2012-10-31 00:29:00
8:53 PM,37.0,35.1,93,29.76,10.0,West,17.3,23.0,0.01,Rain,Light Rain,280,2012-10-31 00:53:00
9:07 PM,37.4,35.6,93,29.74,10.0,West,11.5,19.6,0.00,Rain,Light Rain,280,2012-10-31 01:07:00
9:53 PM,37.0,35.1,93,29.78,9.0,West,12.7,-,0.01,Rain,Light Rain,270,2012-10-31 01:53:00
10:32 PM,37.4,35.6,93,29.76,9.0,West,10.4,-,0.00,Rain,Light Rain,270,2012-10-31 02:32:00
10:42 PM,37.4,35.6,93,29.76,8.0,West,11.5,-,0.00,Rain,Light Rain,270,2012-10-31 02:42:00
10:53 PM,37.0,35.1,93,29.78,9.0,West,11.5,-,0.00,Rain,Light Rain,270,2012-10-31 02:53:00
11:53 PM,37.0,35.1,93,29.78,10.0,West,10.4,-,0.01,Rain,Light Rain,270,2012-10-31 03:53:00